This is the latest recevied weather packets stored in our database for station/object K4DNM. If no packets are shown the sender has not sent any weather packets the latest 10 day(s).
| Time | Temp. | Humidity | Pressure | Rain* | Wind** | Luminosity | Snow |
|---|---|---|---|---|---|---|---|
| 1777651252 | 14.44° C | 56% | 1014.8 hPa | 0 mm | - | 513 W/m² | - |
| 1777651013 | 14.44° C | 55% | 1014.8 hPa | 0 mm | - | 417 W/m² | - |
| 1777650653 | 13.89° C | 58% | 1014.9 hPa | 0 mm | - | 509 W/m² | - |
| 1777650352 | 13.33° C | 58% | 1015.1 hPa | 0 mm | - | 369 W/m² | - |
| 1777650053 | 13.33° C | 58% | 1015.2 hPa | 0 mm | - | 359 W/m² | - |
| 1777649812 | 13.33° C | 58% | 1015.2 hPa | 0 mm | - | 404 W/m² | - |
| 1777649453 | 13.33° C | 58% | 1015.2 hPa | 0 mm | - | 339 W/m² | - |
| 1777649153 | 13.33° C | 59% | 1015.2 hPa | 0 mm | - | 259 W/m² | - |
| 1777648852 | 13.33° C | 59% | 1015.4 hPa | 0 mm | - | 223 W/m² | - |
| 1777648553 | 13.33° C | 60% | 1015.4 hPa | 0 mm | - | 287 W/m² | - |
| 1777648253 | 12.78° C | 62% | 1015.4 hPa | 0 mm | - | 215 W/m² | - |
| 1777647955 | 12.78° C | 62% | 1015.5 hPa | 0 mm | - | 176 W/m² | - |
| 1777647647 | 12.78° C | 61% | 1015.5 hPa | 0 mm | - | 222 W/m² | - |
| 1777647342 | 12.78° C | 62% | 1015.4 hPa | 0 mm | - | 182 W/m² | - |
| 1777647041 | 12.78° C | 64% | 1015.3 hPa | 0 mm | - | 219 W/m² | - |
| 1777646741 | 12.22° C | 67% | 1015.3 hPa | 0.25 mm | - | 195 W/m² | - |
| 1777646443 | 12.22° C | 66% | 1015.4 hPa | 0.25 mm | - | 239 W/m² | - |
| 1777646204 | 12.22° C | 70% | 1015.3 hPa | 0.25 mm | - | 222 W/m² | - |
| 1777645845 | 12.22° C | 70% | 1015.2 hPa | 0.25 mm | - | 190 W/m² | - |
| 1777645545 | 11.67° C | 73% | 1015.2 hPa | 0.25 mm | - | 147 W/m² | - |
| 1777645244 | 11.67° C | 73% | 1015 hPa | 0.25 mm | - | 102 W/m² | - |
| 1777644945 | 11.67° C | 71% | 1014.9 hPa | 0.25 mm | - | 108 W/m² | - |
| 1777644644 | 11.67° C | 72% | 1014.6 hPa | 0.25 mm | - | 100 W/m² | - |
| 1777644345 | 11.67° C | 69% | 1014.9 hPa | 0.25 mm | - | 75 W/m² | - |
| 1777644046 | 12.22° C | 70% | 1015.3 hPa | 0 mm | - | 82 W/m² | - |
* Rain latest hour (hover to see other rain measurements)
** Current wind speed in m/s (hover to see current wind gust speed)